Hourly Weather Bolshie Filipkovichi

Today, 17 June, Thursday

Time Temperature Precipitation Wind Pressure Humidity
00:00 +14°C° 0 mm 3 mps 751 mmHg 83%
01:00 +13°C° 0 mm 3 mps 752 mmHg 82%
02:00 +13°C° 0 mm 3 mps 752 mmHg 83%
03:00 +13°C° 0 mm 3 mps 752 mmHg 83%
04:00 +14°C° 0 mm 2 mps 752 mmHg 84%
05:00 +15°C° 0 mm 2 mps 752 mmHg 85%
06:00 +17°C° 0 mm 3 mps 752 mmHg 77%
07:00 +19°C° 0 mm 3 mps 753 mmHg 70%
08:00 +21°C° 0 mm 3 mps 753 mmHg 62%
09:00 +22°C° 0 mm 3 mps 754 mmHg 57%
10:00 +24°C° 0 mm 3 mps 754 mmHg 52%
11:00 +25°C° 0 mm 3 mps 754 mmHg 47%
12:00 +26°C° 0 mm 3 mps 754 mmHg 47%
13:00 +26°C° 0 mm 3 mps 754 mmHg 46%
14:00 +26°C° 0 mm 3 mps 754 mmHg 46%
15:00 +26°C° 0 mm 3 mps 754 mmHg 49%
16:00 +26°C° 0 mm 3 mps 754 mmHg 53%
17:00 +26°C° 0 mm 3 mps 754 mmHg 56%
18:00 +24°C° 0 mm 3 mps 754 mmHg 63%
19:00 +21°C° 0 mm 3 mps 754 mmHg 71%
20:00 +19°C° 0 mm 3 mps 754 mmHg 78%
21:00 +18°C° 0 mm 3 mps 755 mmHg 81%
22:00 +17°C° 0 mm 3 mps 755 mmHg 84%
23:00 +16°C° 0 mm 2 mps 755 mmHg 87%

Tomorrow, 18 June, Friday

Time Temperature Precipitation Wind Pressure Humidity
00:00 +16°C° 0 mm 2 mps 755 mmHg 88%
01:00 +15°C° 0 mm 2 mps 755 mmHg 89%
02:00 +15°C° 0 mm 2 mps 755 mmHg 90%
03:00 +15°C° 0 mm 2 mps 755 mmHg 89%
04:00 +15°C° 0 mm 2 mps 755 mmHg 88%
05:00 +15°C° 0 mm 2 mps 755 mmHg 88%
06:00 +17°C° 0 mm 3 mps 756 mmHg 81%
07:00 +19°C° 0 mm 3 mps 756 mmHg 74%
08:00 +21°C° 0 mm 4 mps 756 mmHg 68%
09:00 +22°C° 0 mm 4 mps 756 mmHg 64%
10:00 +23°C° 0 mm 4 mps 755 mmHg 61%
11:00 +25°C° 0 mm 4 mps 755 mmHg 57%
12:00 +26°C° 0 mm 4 mps 755 mmHg 56%
13:00 +26°C° 0 mm 4 mps 755 mmHg 54%
14:00 +27°C° 0 mm 4 mps 755 mmHg 53%
15:00 +26°C° 0 mm 4 mps 755 mmHg 55%
16:00 +26°C° 0 mm 4 mps 755 mmHg 58%
17:00 +26°C° 0 mm 4 mps 754 mmHg 60%
18:00 +24°C° 0 mm 3 mps 754 mmHg 67%
19:00 +22°C° 0 mm 3 mps 754 mmHg 75%
20:00 +20°C° 0 mm 2 mps 754 mmHg 82%
21:00 +19°C° 0 mm 2 mps 755 mmHg 85%
22:00 +18°C° 0 mm 2 mps 755 mmHg 88%
23:00 +17°C° 0 mm 2 mps 755 mmHg 91%

Day after tomorrow, 19 June, Saturday

Time Temperature Precipitation Wind Pressure Humidity
00:00 +17°C° 0 mm 2 mps 755 mmHg 92%
01:00 +16°C° 0 mm 2 mps 755 mmHg 93%
02:00 +16°C° 0 mm 2 mps 755 mmHg 94%
03:00 +16°C° 0 mm 2 mps 755 mmHg 94%
04:00 +16°C° 0 mm 2 mps 755 mmHg 94%
05:00 +16°C° 0 mm 2 mps 755 mmHg 93%
06:00 +18°C° 0 mm 2 mps 755 mmHg 87%
07:00 +20°C° 0 mm 3 mps 755 mmHg 80%
08:00 +22°C° 0 mm 3 mps 755 mmHg 73%
09:00 +23°C° 0 mm 4 mps 755 mmHg 68%
10:00 +25°C° 0 mm 4 mps 755 mmHg 63%
11:00 +26°C° 0 mm 4 mps 755 mmHg 58%
12:00 +26°C° 0 mm 4 mps 754 mmHg 56%
13:00 +27°C° 0 mm 4 mps 754 mmHg 55%
14:00 +27°C° 0 mm 4 mps 754 mmHg 53%
15:00 +27°C° 0 mm 4 mps 753 mmHg 56%
16:00 +27°C° 0 mm 4 mps 753 mmHg 59%
17:00 +27°C° 0 mm 4 mps 753 mmHg 61%
18:00 +25°C° 0 mm 3 mps 753 mmHg 69%
19:00 +22°C° 0 mm 3 mps 753 mmHg 76%
20:00 +21°C° 0 mm 3 mps 753 mmHg 83%
21:00 +20°C° 0 mm 3 mps 753 mmHg 86%
22:00 +19°C° 0 mm 3 mps 753 mmHg 89%
23:00 +18°C° 0 mm 3 mps 753 mmHg 91%

20 June, Sunday

Time Temperature Precipitation Wind Pressure Humidity
00:00 +18°C° 0 mm 2 mps 753 mmHg 93%
01:00 +18°C° 0 mm 2 mps 753 mmHg 94%
02:00 +18°C° 0 mm 2 mps 753 mmHg 95%
03:00 +18°C° 0 mm 2 mps 753 mmHg 95%
04:00 +18°C° 0 mm 2 mps 753 mmHg 95%
05:00 +18°C° 0 mm 2 mps 753 mmHg 94%
06:00 +20°C° 0 mm 3 mps 753 mmHg 88%
07:00 +21°C° 0 mm 3 mps 753 mmHg 82%
08:00 +23°C° 0 mm 4 mps 753 mmHg 75%
09:00 +25°C° 0 mm 4 mps 753 mmHg 71%
10:00 +26°C° 0 mm 4 mps 753 mmHg 66%
11:00 +27°C° 0 mm 4 mps 752 mmHg 62%
12:00 +28°C° 0 mm 4 mps 752 mmHg 60%
13:00 +28°C° 0 mm 4 mps 752 mmHg 59%
14:00 +28°C° 0 mm 4 mps 752 mmHg 57%
15:00 +28°C° 0 mm 4 mps 751 mmHg 60%
16:00 +27°C° 0 mm 4 mps 751 mmHg 63%
17:00 +27°C° 0 mm 4 mps 751 mmHg 65%
18:00 +25°C° 0 mm 4 mps 751 mmHg 71%
19:00 +24°C° 0 mm 3 mps 751 mmHg 77%
20:00 +21°C° 0 mm 3 mps 751 mmHg 83%
21:00 +21°C° 0 mm 3 mps 751 mmHg 86%
22:00 +20°C° 0 mm 3 mps 751 mmHg 89%
23:00 +19°C° 0 mm 3 mps 751 mmHg 92%

21 June, Monday

Time Temperature Precipitation Wind Pressure Humidity
00:00 +18°C° 0 mm 2 mps 751 mmHg 92%
01:00 +18°C° 0 mm 2 mps 751 mmHg 93%
02:00 +17°C° 0 mm 2 mps 750 mmHg 94%
03:00 +18°C° 0 mm 2 mps 750 mmHg 93%
04:00 +18°C° 0 mm 2 mps 750 mmHg 92%
05:00 +18°C° 0 mm 3 mps 750 mmHg 91%
06:00 +20°C° 0 mm 3 mps 750 mmHg 84%
07:00 +21°C° 0 mm 4 mps 750 mmHg 77%
08:00 +23°C° 0 mm 5 mps 750 mmHg 70%
09:00 +23°C° 0 mm 4 mps 750 mmHg 69%
10:00 +25°C° 0 mm 4 mps 750 mmHg 68%
11:00 +25°C° 0 mm 4 mps 749 mmHg 67%
12:00 +26°C° 0 mm 5 mps 749 mmHg 63%
13:00 +28°C° 0 mm 5 mps 749 mmHg 58%
14:00 +29°C° 0 mm 6 mps 749 mmHg 54%
15:00 +29°C° 0 mm 5 mps 748 mmHg 58%
16:00 +29°C° 0 mm 5 mps 748 mmHg 61%
17:00 +29°C° 0 mm 5 mps 748 mmHg 64%
18:00 +27°C° 0 mm 4 mps 748 mmHg 70%
19:00 +26°C° 0 mm 4 mps 748 mmHg 76%
20:00 +25°C° 0 mm 4 mps 748 mmHg 82%
21:00 +23°C° 0 mm 4 mps 748 mmHg 86%
22:00 +22°C° 0 mm 4 mps 748 mmHg 89%
23:00 +21°C° 0 mm 4 mps 748 mmHg 93%

22 June, Tuesday

Time Temperature Precipitation Wind Pressure Humidity
00:00 +21°C° 0 mm 3 mps 748 mmHg 94%
01:00 +20°C° 0 mm 3 mps 748 mmHg 95%
02:00 +20°C° 0 mm 3 mps 748 mmHg 96%
03:00 +20°C° 0 mm 3 mps 748 mmHg 96%
04:00 +20°C° 0 mm 3 mps 748 mmHg 95%
05:00 +20°C° 0 mm 3 mps 748 mmHg 94%
06:00 +21°C° 0 mm 4 mps 748 mmHg 87%
07:00 +23°C° 0 mm 4 mps 748 mmHg 80%
08:00 +26°C° 0 mm 4 mps 748 mmHg 73%
09:00 +27°C° 0 mm 4 mps 748 mmHg 68%
10:00 +28°C° 0 mm 4 mps 748 mmHg 63%
11:00 +30°C° 0 mm 4 mps 748 mmHg 58%
12:00 +30°C° 0 mm 5 mps 748 mmHg 55%
13:00 +32°C° 0 mm 5 mps 748 mmHg 53%
14:00 +32°C° 0 mm 5 mps 748 mmHg 51%
15:00 +32°C° 0 mm 5 mps 748 mmHg 54%
16:00 +30°C° 0 mm 5 mps 748 mmHg 57%
17:00 +30°C° 0 mm 4 mps 748 mmHg 60%
18:00 +28°C° 0 mm 4 mps 748 mmHg 68%
19:00 +26°C° 0 mm 4 mps 748 mmHg 75%
20:00 +25°C° 0 mm 3 mps 748 mmHg 82%
21:00 +24°C° 0 mm 3 mps 748 mmHg 86%
22:00 +22°C° 0 mm 3 mps 748 mmHg 90%
23:00 +21°C° 0 mm 3 mps 749 mmHg 93%
Show more